QPF
0.03 0.03 0.03 0.03 0.03 0.03 0.04 0.05 0.07 0.06 0.04 0.03 0.02 0.02 0.01 0.01 0.02 0.02 0.02 0.03 0.03 0.03 0.02 0.02 0.02 0.02 0.02 0.02 0.02 0.02 0.01 0.01 0.01 0.01 0.01 0.02 0.02 0.03
0.02 0.03 0.04 0.04 0.04 0.04 0.04 0.05 0.06 0.08 0.06 0.04 0.03 0.02 0.02 0.02 0.02 0.02 0.02 0.02 0.02 0.02 0.02 0.02 0.02 0.02 0.02 0.02 0.02 0.02 0.02 0.02 0.02 0.01 0.01 0.01 0.02 0.02
0.02 0.02 0.03 0.04 0.05 0.06 0.06 0.05 0.07 0.08 0.07 0.05 0.03 0.03 0.02 0.02 0.02 0.02 0.02 0.02 0.02 0.02 0.02 0.02 0.02 0.02 0.02 0.02 0.02 0.02 0.02 0.02 0.02 0.02 0.02 0.02 0.02 0.02
0.02 0.02 0.03 0.03 0.04 0.05 0.05 0.05 0.05 0.06 0.07 0.07 0.05 0.04 0.03 0.03 0.03 0.03 0.03 0.03 0.02 0.03 0.03 0.03 0.02 0.02 0.02 0.02 0.02 0.02 0.02 0.02 0.02 0.02 0.02 0.02 0.02 0.02
0.01 0.02 0.02 0.03 0.03 0.03 0.04 0.05 0.05 0.06 0.07 0.08 0.08 0.06 0.04 0.04 0.04 0.04 0.04 0.04 0.04 0.04 0.04 0.04 0.04 0.03 0.02 0.02 0.02 0.01 0.01 0.01 0.01 0.02 0.02 0.02 0.03 0.03
0.01 0.01 0.02 0.02 0.02 0.03 0.03 0.04 0.04 0.05 0.05 0.07 0.07 0.07 0.06 0.05 0.06 0.06 0.06 0.05 0.06 0.05 0.05 0.05 0.04 0.03 0.02 0.02 0.01 0.01 0.01 0.01 0.01 0.01 0.02 0.02 0.03 0.03
0.01 0.02 0.02 0.02 0.03 0.04 0.04 0.04 0.04 0.04 0.04 0.05 0.05 0.05 0.05 0.06 0.06 0.07 0.07 0.07 0.07 0.06 0.06 0.05 0.05 0.03 0.03 0.03 0.02 0.01 0.01 0.01 0.01 0.01 0.02 0.02 0.03 0.03
0.02 0.02 0.03 0.04 0.04 0.05 0.05 0.04 0.04 0.04 0.04 0.04 0.04 0.04 0.04 0.04 0.05 0.06 0.06 0.06 0.06 0.04 0.04 0.04 0.04 0.04 0.03 0.03 0.03 0.03 0.02 0.01 0.01 0.01 0.02 0.02 0.03 0.04
0.03 0.03 0.04 0.04 0.04 0.04 0.04 0.04 0.04 0.04 0.04 0.04 0.04 0.03 0.03 0.03 0.04 0.05 0.05 0.04 0.04 0.04 0.03 0.03 0.03 0.04 0.03 0.03 0.04 0.04 0.03 0.03 0.02 0.02 0.02 0.03 0.04 0.04
0.04 0.04 0.04 0.05 0.06 0.06 0.05 0.04 0.04 0.04 0.04 0.04 0.03 0.03 0.03 0.03 0.04 0.05 0.05 0.05 0.04 0.04 0.03 0.03 0.03 0.03 0.03 0.03 0.03 0.04 0.04 0.04 0.04 0.04 0.03 0.03 0.03 0.04
0.04 0.04 0.05 0.06 0.07 0.06 0.05 0.05 0.04 0.04 0.03 0.03 0.03 0.04 0.04 0.05 0.05 0.06 0.06 0.06 0.06 0.04 0.03 0.03 0.03 0.03 0.03 0.03 0.03 0.04 0.05 0.06 0.06 0.05 0.04 0.03 0.03 0.03
0.05 0.06 0.07 0.06 0.06 0.05 0.04 0.05 0.06 0.04 0.03 0.03 0.03 0.04 0.05 0.05 0.06 0.05 0.05 0.06 0.06 0.05 0.03 0.03 0.03 0.03 0.04 0.04 0.03 0.04 0.04 0.05 0.05 0.05 0.04 0.04 0.04 0.03
0.07 0.06 0.05 0.05 0.05 0.04 0.04 0.05 0.05 0.05 0.04 0.04 0.04 0.04 0.05 0.06 0.05 0.05 0.04 0.04 0.04 0.03 0.02 0.03 0.04 0.04 0.04 0.04 0.04 0.04 0.04 0.05 0.05 0.05 0.06 0.05 0.04 0.04
0.07 0.06 0.05 0.05 0.04 0.05 0.05 0.04 0.04 0.05 0.05 0.05 0.04 0.04 0.04 0.04 0.03 0.03 0.04 0.04 0.04 0.03 0.03 0.03 0.04 0.04 0.05 0.05 0.04 0.04 0.04 0.05 0.06 0.06 0.06 0.05 0.04 0.04
0.06 0.07 0.07 0.07 0.06 0.05 0.05 0.06 0.05 0.05 0.05 0.05 0.04 0.03 0.03 0.02 0.02 0.03 0.03 0.04 0.05 0.04 0.04 0.04 0.03 0.04 0.05 0.05 0.05 0.05 0.05 0.05 0.06 0.06 0.05 0.04 0.04 0.03
0.06 0.06 0.06 0.05 0.04 0.04 0.05 0.05 0.05 0.05 0.05 0.04 0.04 0.03 0.02 0.02 0.02 0.02 0.03 0.04 0.04 0.05 0.05 0.05 0.04 0.04 0.04 0.04 0.05 0.05 0.05 0.05 0.06 0.05 0.05 0.05 0.04 0.04
0.06 0.05 0.05 0.04 0.04 0.03 0.04 0.04 0.04 0.04 0.04 0.04 0.04 0.03 0.03 0.03 0.03 0.03 0.03 0.03 0.04 0.03 0.04 0.04 0.04 0.05 0.05 0.05 0.04 0.04 0.04 0.05 0.06 0.05 0.05 0.05 0.05 0.05
0.05 0.04 0.04 0.03 0.03 0.03 0.04 0.05 0.05 0.05 0.04 0.04 0.04 0.04 0.04 0.04 0.04 0.04 0.04 0.04 0.04 0.03 0.03 0.03 0.04 0.05 0.06 0.06 0.05 0.04 0.04 0.04 0.05 0.05 0.05 0.05 0.05 0.05
0.04 0.04 0.04 0.04 0.04 0.04 0.04 0.05 0.06 0.05 0.05 0.05 0.05 0.05 0.05 0.04 0.04 0.04 0.04 0.04 0.04 0.04 0.05 0.05 0.05 0.06 0.07 0.06 0.05 0.05 0.05 0.04 0.04 0.05 0.05 0.05 0.05 0.05
0.03 0.03 0.03 0.03 0.04 0.05 0.05 0.05 0.06 0.06 0.05 0.04 0.05 0.05 0.04 0.04 0.04 0.04 0.04 0.05 0.05 0.05 0.06 0.06 0.06 0.06 0.07 0.06 0.06 0.05 0.05 0.04 0.04 0.05 0.05 0.05 0.05 0.04
0.02 0.02 0.02 0.03 0.03 0.03 0.04 0.04 0.05 0.06 0.06 0.05 0.05 0.04 0.04 0.04 0.04 0.04 0.04 0.05 0.05 0.06 0.06 0.05 0.05 0.06 0.07 0.07 0.06 0.05 0.04 0.03 0.04 0.05 0.05 0.04 0.04 0.03
0.02 0.02 0.02 0.02 0.03 0.03 0.04 0.04 0.05 0.06 0.06 0.06 0.05 0.04 0.04 0.04 0.04 0.04 0.05 0.04 0.04 0.04 0.05 0.05 0.06 0.06 0.06 0.06 0.06 0.04 0.03 0.03 0.02 0.02 0.02 0.03 0.03 0.03
0.03 0.03 0.03 0.03 0.03 0.03 0.03 0.04 0.04 0.05 0.05 0.05 0.05 0.04 0.04 0.04 0.04 0.04 0.05 0.04 0.04 0.04 0.04 0.05 0.05 0.05 0.05 0.05 0.05 0.04 0.03 0.02 0.01 0.01 0.01 0.01 0.01 0.02
MSLP
1027.31 1027.47 1027.62 1027.70 1027.68 1027.50 1027.15 1026.65 1026.02 1025.32 1024.59 1023.87 1023.18 1022.55 1021.94 1021.34 1020.72 1020.04 1019.30 1018.48 1017.61 1016.70 1015.78 1014.87 1013.96 1013.07 1012.19 1011.29 1010.37 1009.43 1008.47 1007.52 1006.60 1005.75 1004.99 1004.34 1003.79 1003.32
1027.18 1027.33 1027.48 1027.55 1027.52 1027.33 1026.99 1026.49 1025.88 1025.19 1024.47 1023.75 1023.07 1022.41 1021.76 1021.11 1020.42 1019.67 1018.84 1017.96 1017.02 1016.06 1015.10 1014.16 1013.25 1012.36 1011.48 1010.58 1009.66 1008.70 1007.72 1006.73 1005.75 1004.84 1004.02 1003.31 1002.72 1002.22
1027.00 1027.15 1027.27 1027.33 1027.27 1027.07 1026.72 1026.24 1025.64 1024.98 1024.28 1023.59 1022.90 1022.23 1021.56 1020.85 1020.09 1019.26 1018.35 1017.37 1016.35 1015.32 1014.31 1013.34 1012.40 1011.51 1010.63 1009.74 1008.83 1007.87 1006.88 1005.87 1004.88 1003.93 1003.07 1002.33 1001.70 1001.18
1026.80 1026.93 1027.03 1027.06 1026.98 1026.76 1026.40 1025.92 1025.35 1024.71 1024.05 1023.38 1022.71 1022.04 1021.34 1020.60 1019.77 1018.86 1017.87 1016.80 1015.70 1014.59 1013.51 1012.49 1011.52 1010.60 1009.71 1008.83 1007.91 1006.96 1005.97 1004.95 1003.95 1002.99 1002.12 1001.36 1000.72 1000.20
1026.59 1026.71 1026.78 1026.78 1026.67 1026.43 1026.06 1025.59 1025.03 1024.42 1023.79 1023.16 1022.52 1021.86 1021.16 1020.39 1019.52 1018.55 1017.48 1016.34 1015.15 1013.97 1012.81 1011.72 1010.70 1009.73 1008.81 1007.89 1006.95 1005.99 1004.98 1003.96 1002.95 1001.98 1001.11 1000.35 999.72 999.22
1026.36 1026.47 1026.52 1026.50 1026.36 1026.10 1025.73 1025.26 1024.72 1024.14 1023.55 1022.96 1022.36 1021.73 1021.04 1020.26 1019.38 1018.37 1017.26 1016.05 1014.79 1013.53 1012.30 1011.13 1010.02 1008.98 1007.98 1006.99 1005.99 1004.97 1003.92 1002.87 1001.83 1000.86 999.98 999.24 998.64 998.16
1026.12 1026.22 1026.26 1026.22 1026.07 1025.79 1025.41 1024.95 1024.43 1023.89 1023.34 1022.80 1022.24 1021.65 1021.00 1020.24 1019.36 1018.35 1017.21 1015.97 1014.66 1013.33 1012.01 1010.75 1009.54 1008.38 1007.27 1006.16 1005.05 1003.93 1002.79 1001.66 1000.57 999.57 998.68 997.95 997.38 996.95
1025.85 1025.95 1025.99 1025.94 1025.77 1025.49 1025.12 1024.67 1024.18 1023.67 1023.17 1022.67 1022.17 1021.63 1021.02 1020.31 1019.46 1018.46 1017.32 1016.06 1014.72 1013.33 1011.94 1010.57 1009.24 1007.94 1006.67 1005.41 1004.14 1002.86 1001.59 1000.34 999.16 998.10 997.18 996.45 995.91 995.54
1025.54 1025.65 1025.69 1025.63 1025.47 1025.20 1024.83 1024.41 1023.95 1023.48 1023.02 1022.58 1022.13 1021.64 1021.08 1020.41 1019.60 1018.63 1017.51 1016.26 1014.89 1013.46 1012.00 1010.53 1009.07 1007.62 1006.17 1004.71 1003.25 1001.78 1000.32 998.92 997.62 996.46 995.50 994.75 994.24 993.93
1025.21 1025.32 1025.36 1025.31 1025.16 1024.90 1024.55 1024.15 1023.72 1023.29 1022.88 1022.47 1022.07 1021.62 1021.11 1020.48 1019.71 1018.78 1017.68 1016.44 1015.07 1013.61 1012.09 1010.53 1008.95 1007.34 1005.71 1004.05 1002.37 1000.69 999.04 997.45 996.00 994.73 993.69 992.92 992.42 992.16
1024.85 1024.96 1025.01 1024.97 1024.83 1024.59 1024.27 1023.90 1023.50 1023.10 1022.72 1022.34 1021.96 1021.54 1021.05 1020.45 1019.70 1018.80 1017.73 1016.50 1015.14 1013.67 1012.10 1010.48 1008.79 1007.05 1005.26 1003.41 1001.53 999.64 997.79 996.02 994.40 993.01 991.88 991.07 990.57 990.36
1024.48 1024.59 1024.64 1024.61 1024.49 1024.28 1023.99 1023.65 1023.28 1022.91 1022.54 1022.18 1021.80 1021.38 1020.89 1020.28 1019.54 1018.65 1017.59 1016.38 1015.02 1013.55 1011.97 1010.30 1008.55 1006.71 1004.79 1002.80 1000.75 998.68 996.64 994.71 992.94 991.42 990.20 989.33 988.81 988.62
1024.10 1024.21 1024.27 1024.26 1024.17 1023.99 1023.74 1023.43 1023.09 1022.73 1022.37 1022.00 1021.60 1021.16 1020.63 1020.00 1019.23 1018.33 1017.27 1016.06 1014.71 1013.25 1011.67 1009.99 1008.21 1006.32 1004.33 1002.23 1000.07 997.86 995.68 993.60 991.70 990.06 988.74 987.81 987.26 987.06
1023.71 1023.84 1023.92 1023.94 1023.88 1023.74 1023.53 1023.26 1022.94 1022.60 1022.23 1021.84 1021.40 1020.91 1020.33 1019.64 1018.83 1017.89 1016.81 1015.60 1014.26 1012.82 1011.26 1009.60 1007.82 1005.93 1003.91 1001.77 999.53 997.24 994.96 992.77 990.76 989.01 987.60 986.58 985.97 985.75
1023.33 1023.48 1023.59 1023.65 1023.64 1023.55 1023.38 1023.15 1022.86 1022.53 1022.15 1021.73 1021.25 1020.70 1020.05 1019.29 1018.42 1017.43 1016.31 1015.09 1013.76 1012.34 1010.82 1009.19 1007.45 1005.59 1003.58 1001.44 999.19 996.86 994.52 992.26 990.16 988.32 986.80 985.70 985.00 984.72
1022.94 1023.13 1023.28 1023.39 1023.43 1023.39 1023.28 1023.10 1022.85 1022.53 1022.16 1021.71 1021.19 1020.57 1019.86 1019.03 1018.09 1017.04 1015.89 1014.65 1013.33 1011.92 1010.44 1008.87 1007.18 1005.36 1003.40 1001.30 999.06 996.73 994.37 992.07 989.90 987.98 986.37 985.15 984.36 983.97
1022.53 1022.77 1022.98 1023.14 1023.24 1023.26 1023.21 1023.08 1022.88 1022.59 1022.23 1021.78 1021.23 1020.57 1019.79 1018.91 1017.91 1016.81 1015.63 1014.37 1013.05 1011.67 1010.22 1008.69 1007.07 1005.31 1003.42 1001.36 999.17 996.86 994.51 992.19 989.98 987.98 986.28 984.96 984.04 983.53
1022.09 1022.38 1022.64 1022.86 1023.02 1023.11 1023.12 1023.05 1022.90 1022.66 1022.33 1021.89 1021.33 1020.65 1019.85 1018.93 1017.90 1016.77 1015.56 1014.29 1012.97 1011.61 1010.20 1008.73 1007.16 1005.47 1003.64 1001.66 999.52 997.26 994.94 992.62 990.39 988.34 986.56 985.13 984.08 983.43
1021.60 1021.93 1022.24 1022.51 1022.73 1022.87 1022.95 1022.95 1022.86 1022.67 1022.38 1021.98 1021.45 1020.78 1019.98 1019.05 1018.01 1016.87 1015.66 1014.40 1013.10 1011.76 1010.39 1008.96 1007.45 1005.83 1004.08 1002.17 1000.11 997.91 995.64 993.35 991.13 989.06 987.22 985.70 984.53 983.74
1021.05 1021.42 1021.77 1022.07 1022.33 1022.52 1022.65 1022.71 1022.68 1022.56 1022.33 1021.98 1021.49 1020.86 1020.09 1019.19 1018.17 1017.05 1015.87 1014.63 1013.36 1012.07 1010.74 1009.37 1007.92 1006.38 1004.71 1002.89 1000.92 998.82 996.63 994.40 992.22 990.16 988.30 986.72 985.46 984.54
1020.44 1020.83 1021.19 1021.51 1021.79 1022.02 1022.19 1022.30 1022.33 1022.27 1022.11 1021.82 1021.39 1020.82 1020.11 1019.26 1018.29 1017.23 1016.09 1014.91 1013.69 1012.45 1011.19 1009.89 1008.53 1007.07 1005.51 1003.80 1001.95 999.97 997.90 995.78 993.68 991.68 989.83 988.23 986.91 985.90
1019.78 1020.17 1020.52 1020.85 1021.14 1021.38 1021.58 1021.72 1021.80 1021.79 1021.69 1021.47 1021.11 1020.61 1019.97 1019.19 1018.30 1017.31 1016.25 1015.14 1014.01 1012.85 1011.68 1010.47 1009.21 1007.88 1006.44 1004.87 1003.18 1001.36 999.44 997.47 995.50 993.60 991.82 990.25 988.91 987.85
1019.06 1019.44 1019.78 1020.10 1020.38 1020.63 1020.84 1021.00 1021.11 1021.15 1021.09 1020.93 1020.64 1020.21 1019.65 1018.96 1018.15 1017.25 1016.29 1015.28 1014.25 1013.20 1012.14 1011.06 1009.93 1008.74 1007.46 1006.07 1004.55 1002.93 1001.21 999.42 997.63 995.87 994.21 992.71 991.41 990.33
Thickness
5542 5541 5541 5540 5539 5538 5536 5535 5533 5533 5535 5534 5532 5533 5531 5529 5529 5527 5526 5524 5521 5519 5518 5516 5515 5512 5510 5508 5507 5507 5506 5505 5505 5506 5507 5508 5509 5509
5531 5531 5531 5530 5529 5528 5527 5526 5525 5524 5525 5526 5523 5522 5521 5519 5518 5517 5515 5514 5512 5510 5508 5506 5505 5502 5501 5499 5498 5497 5496 5495 5495 5496 5497 5497 5498 5498
5521 5521 5521 5520 5518 5518 5516 5515 5514 5512 5513 5514 5512 5511 5510 5509 5508 5506 5505 5503 5502 5500 5498 5497 5495 5493 5491 5490 5489 5488 5487 5485 5485 5485 5486 5487 5487 5488
5512 5511 5510 5510 5508 5507 5506 5505 5504 5502 5501 5501 5500 5498 5498 5497 5497 5496 5494 5493 5493 5491 5489 5487 5485 5484 5482 5480 5479 5478 5477 5476 5475 5475 5476 5476 5476 5476
5502 5501 5500 5499 5498 5497 5496 5496 5494 5493 5491 5489 5489 5487 5486 5485 5485 5485 5484 5483 5483 5481 5479 5478 5476 5474 5472 5471 5470 5468 5468 5467 5466 5466 5465 5465 5465 5465
5491 5491 5490 5490 5490 5488 5487 5486 5485 5482 5480 5479 5478 5475 5473 5473 5473 5472 5472 5472 5471 5470 5469 5467 5465 5464 5462 5461 5460 5459 5458 5457 5456 5456 5455 5455 5455 5455
5481 5481 5481 5481 5481 5480 5479 5477 5475 5473 5471 5469 5467 5465 5463 5462 5462 5461 5461 5461 5460 5459 5458 5456 5455 5454 5452 5451 5450 5450 5449 5448 5448 5447 5447 5446 5445 5445
5471 5471 5471 5470 5471 5470 5470 5469 5467 5465 5463 5461 5459 5458 5457 5455 5453 5451 5450 5449 5448 5450 5447 5446 5445 5444 5443 5442 5441 5440 5439 5440 5439 5438 5437 5436 5435 5434
5461 5460 5460 5461 5460 5460 5459 5458 5457 5455 5455 5454 5452 5451 5449 5448 5445 5442 5440 5439 5439 5439 5436 5436 5435 5434 5434 5432 5431 5430 5430 5430 5429 5428 5427 5426 5425 5424
5451 5450 5450 5450 5450 5449 5449 5448 5447 5446 5445 5445 5444 5443 5441 5438 5436 5434 5431 5429 5427 5426 5425 5425 5425 5424 5424 5422 5421 5421 5420 5420 5419 5417 5416 5416 5415 5414
5440 5440 5440 5440 5441 5440 5439 5439 5437 5436 5435 5434 5433 5432 5430 5428 5426 5422 5420 5418 5417 5416 5414 5413 5413 5412 5413 5413 5412 5411 5410 5409 5408 5407 5406 5406 5405 5404
5431 5430 5431 5431 5431 5431 5430 5429 5427 5427 5425 5423 5422 5420 5418 5417 5415 5414 5413 5410 5407 5405 5405 5403 5401 5400 5401 5403 5401 5401 5400 5398 5397 5396 5396 5396 5396 5395
5421 5421 5421 5421 5421 5421 5420 5419 5419 5417 5414 5412 5411 5410 5408 5406 5406 5405 5404 5402 5399 5397 5396 5393 5391 5389 5388 5390 5391 5391 5389 5388 5387 5386 5385 5386 5387 5387
5412 5411 5411 5411 5411 5410 5409 5409 5408 5406 5403 5402 5401 5400 5399 5398 5396 5395 5394 5393 5392 5390 5388 5386 5383 5381 5379 5379 5380 5381 5380 5378 5378 5377 5375 5376 5377 5378
5402 5402 5401 5401 5400 5399 5398 5398 5396 5394 5393 5392 5392 5391 5390 5388 5387 5385 5384 5383 5382 5380 5379 5377 5376 5374 5372 5371 5372 5372 5371 5371 5369 5368 5367 5368 5369 5370
5391 5391 5390 5390 5389 5389 5387 5386 5384 5384 5383 5382 5381 5380 5379 5377 5377 5376 5375 5373 5372 5370 5369 5368 5367 5366 5365 5365 5364 5363 5362 5360 5360 5360 5360 5360 5361 5362
5381 5380 5379 5378 5377 5376 5375 5374 5373 5373 5372 5371 5371 5370 5368 5368 5367 5366 5365 5363 5362 5362 5361 5359 5358 5357 5356 5356 5355 5355 5353 5351 5350 5350 5351 5352 5354 5355
5370 5369 5368 5367 5367 5366 5365 5364 5363 5363 5362 5361 5361 5360 5359 5359 5358 5356 5355 5354 5354 5353 5352 5351 5350 5348 5346 5345 5346 5345 5344 5342 5342 5342 5342 5343 5346 5348
5359 5358 5357 5356 5356 5355 5354 5354 5353 5353 5352 5352 5351 5350 5350 5349 5348 5347 5346 5345 5345 5344 5343 5342 5341 5340 5338 5337 5336 5336 5335 5334 5334 5334 5334 5335 5337 5341
5350 5348 5347 5346 5345 5345 5344 5344 5343 5342 5343 5342 5342 5341 5341 5340 5339 5338 5337 5336 5336 5335 5334 5333 5332 5331 5330 5328 5326 5326 5326 5326 5327 5327 5328 5329 5331 5334
5341 5340 5338 5337 5336 5335 5335 5334 5334 5334 5334 5334 5334 5333 5333 5332 5331 5330 5329 5329 5327 5326 5325 5325 5324 5323 5320 5318 5317 5317 5318 5319 5320 5320 5321 5322 5324 5327
5333 5331 5329 5328 5327 5326 5326 5326 5326 5325 5325 5325 5325 5324 5324 5323 5322 5321 5320 5319 5318 5316 5316 5315 5315 5314 5312 5311 5310 5310 5310 5313 5314 5314 5315 5317 5317 5319
5325 5323 5321 5320 5319 5318 5318 5318 5317 5317 5316 5316 5316 5316 5314 5314 5313 5312 5312 5311 5309 5308 5307 5306 5305 5304 5304 5303 5303 5302 5302 5305 5307 5308 5310 5311 5312 5314